Tracking 30918 objects as of 2-Jul-2025
HD Live streaming from Space Station
objects crossing your sky now

NANOSAT(1)

Track NANOSAT(1) now!
10-day predictions
NANOSAT(1) is classified as:


NORAD ID: 28493
Int'l Code: 2004-049B
Perigee: 637.1 km
Apogee: 642.3 km
Inclination: 98.2 °
Period: 97.4 minutes
Semi major axis: 7010 km
RCS: 0.2736 m2 (medium)
Launch date: December 18, 2004
Source: Spain (SPN)
Launch site: FRENCH GUIANA (FRGUI)

Will maintain contact with Spanish zone in Antarctica; extremely small magnetic and solar sensors.
Your satellite tracking list
Your tracking list is empty




NASA's NSSDC Master Catalog

Two Line Element Set (TLE):
1 28493U 04049B   25182.93160154  .00000836  00000-0  12052-3 0  9990
2 28493  98.1829 307.3523 0003738 358.9874   1.1329 14.78983835103650
Source of the keplerian elements: AFSPC